Regional Weather Roundup
Issued by NWS

Home | Current Version | Previous Version | Graphics & Text | Print | Product List | Glossary On
Versions: 1 2 3 4 5 6 7 8 9 10 11 12 13 14 15 16 17 18 19 20 21 22 23 24 25 26 27 28 29 30 31 32 33 34 35 36 37 38 39 40 41 42 43 44 45 46 47 48 49 50
000
ASUS43 KBIS 040620
RWRND

NORTH DAKOTA REGIONAL WEATHER ROUNDUP
NATIONAL WEATHER SERVICE BISMARCK ND
1200 AM CST WED MAR 04 2015

NOTE: "FAIR" INDICATES FEW OR NO CLOUDS BELOW 12,000 FEET WITH NO
SIGNIFICANT WEATHER AND/OR OBSTRUCTIONS TO VISIBILITY.


NDZ001>003-009>011-017-040700-
NORTHWEST NORTH DAKOTA

CITY           SKY/WX    TMP DP  RH WIND       PRES   REMARKS
WILLISTON      CLEAR     -2 -10  69 NW16      30.11R WCI -23
6HR MIN TEMP:  -2; 6HR MAX TEMP:   7; 6HR PCP:  0.01;

MINOT          CLOUDY     0  -7  72 NW18      30.01R HAZE    WCI -21
MINOT AFB      PTCLDY    -1  -8  71 NW16      30.01R WCI -21
$$

NDZ018>021-031>035-040>046-040700-
SOUTHWEST NORTH DAKOTA

CITY           SKY/WX    TMP DP  RH WIND       PRES   REMARKS
BISMARCK       CLOUDY     2  -5  72 SW8       30.05S WCI -12
6HR MIN TEMP:   1; 6HR MAX TEMP:  10;

DICKINSON      PTCLDY     5  -3  69 NW21G28   29.98R WCI -16
GARRISON         N/A      2  -3  80 W12       30.01R WCI -15
6HR MIN TEMP: -10; 6HR MAX TEMP:   4; 6HR PCP:  0.01;

HETTINGER ARPT CLEAR      4  -5  66 W13       30.00R WCI -13
$$

NDZ004>008-012>016-024-026-027-054-040700-
NORTHEAST NORTH DAKOTA

CITY           SKY/WX    TMP DP  RH WIND       PRES   REMARKS
GRAND FORKS    CLEAR     -1  -9  68 W10       30.04R WCI -17
GRND FRKS AFB  CLEAR     -1 -11  64 NW12      30.03R WCI -19
DEVILS LAKE    CLEAR     -4 -13  65 W10       29.99S WCI -21
$$

NDZ022-023-025-028>030-036>039-047>053-040700-
SOUTHEAST NORTH DAKOTA

CITY           SKY/WX    TMP DP  RH WIND       PRES   REMARKS
FARGO          CLEAR      1  -8  66 W12       30.07S WCI -16
6HR MIN TEMP:   0; 6HR MAX TEMP:   9; 6HR PCP: TRACE;

JAMESTOWN      CLEAR     -2 -11  65 W6        30.02S WCI -14
$$




USA.gov is the U.S. government's official web portal to all federal, state and local government web resources and services.